Hourly Data Report for July 30, 2011

HALIFAX STANFIELD INT'L A
NOVA SCOTIA

44°52'48.060" N
63°30'00.050" W
145.40 m
8202250
71395
YHZ

Download Data

Hourly Data (July 2011)
Hourly Data Report for July 30, 2011
TIME
LST
Temp Definition
°C
Dew Point Definition
°C
Rel Hum Definition
%
Precip. Amount Definition
mm

Wind Dir Definition
10's deg

Wind Spd Definition
km/h
Visibility Definition
km
Stn Press Definition
kPa
Hmdx Definition


Wind Chill Definition


Weather Definition


00:00 14.2 12.2 88   19 22 3.2 99.83     Fog
01:00 14.5 12.5 88   20 22 3.2 99.81     Fog
02:00 14.6 12.6 88   21 24 3.2 99.79     Fog
03:00 14.9 12.5 86   18 19 4.8 99.71     Fog
04:00 15.3 14.3 94   18 17 3.2 99.63     Fog
05:00 15.8 14.9 94   17 17 9.7 99.64     Fog
06:00 16.2 15.2 94   18 19 16.1 99.62     Cloudy
07:00 16.3 15.3 94   18 26 16.1 99.64     Rain
08:00 16.4 15.5 94   18 19 12.9 99.61     Rain
09:00 16.6 15.6 94   16 22 12.9 99.52     Rain
10:00 17.0 16.0 94   17 35 24.1 99.40     Cloudy
11:00 17.7 16.1 90   16 28 24.1 99.45     Cloudy
12:00 17.9 16.3 90   15 26 24.1 99.33     Rain
13:00 16.7 15.6 93   14 24 8.0 99.24     Rain, Fog
14:00 17.2 16.4 95   14 24 1.2 99.18     Rain, Fog
15:00 16.4 15.6 95   14 20 2.4 99.11     Rain, Fog
16:00 16.8 16.0 95   10 24 2.4 99.02     Rain, Fog
17:00 17.5 16.5 94   12 26 4.8 98.82     Rain, Fog
18:00 17.4 16.6 95   12 13 2.4 98.81     Rain, Fog
19:00 17.2 16.5 96   36 9 3.2 98.80     Drizzle, Fog
20:00 16.4 15.7 96   36 30 1.2 98.86     Drizzle, Fog
21:00 16.0 14.6 91   1 30 9.7 98.96     Drizzle, Fog
22:00 16.0 14.0 88   33 20 4.8 99.08     Fog
23:00 16.4 14.8 90   32 24 9.7 99.10     Fog

Notes on Data Quality.

Legend

  • E = Estimated
  • M = Missing
  • NA = Not Available*
  • [empty] = Indicates an unobserved value
Date modified: